| time (UTC) | temp F | wind direction | speed knots | gust knots | rain 1hr in | rain 24hr in | rain mn in | humidity % | barometer mb |
| 20260906191649 | 79 | 157 | 8.7 | 13.9 | 0.00 | 0.00 | 0.00 | 70 | 1018.5 |
| 20260906191149 | 79 | 138 | 7.8 | 14.8 | 0.00 | 0.00 | 0.00 | 71 | 1018.6 |
| 20260906190648 | 80 | 116 | 10.4 | 14.8 | 0.00 | 0.00 | 0.00 | 70 | 1018.5 |
| 20260906190148 | 80 | 128 | 11.3 | 13.9 | 0.00 | 0.00 | 0.00 | 68 | 1018.5 |
| 20260906185649 | 81 | 154 | 7.8 | 14.8 | 0.00 | 0.00 | 0.00 | 68 | 1018.3 |
| 20260906185150 | 80 | 120 | 11.3 | 14.8 | 0.00 | 0.00 | 0.00 | 70 | 1018.4 |
| 20260906184648 | 80 | 121 | 12.2 | 14.8 | 0.00 | 0.00 | 0.00 | 70 | 1018.6 |
| 20260906184147 | 80 | 138 | 10.4 | 15.6 | 0.00 | 0.00 | 0.00 | 71 | 1018.6 |
| 20260906183647 | 80 | 125 | 10.4 | 15.6 | 0.00 | 0.00 | 0.00 | 70 | 1018.7 |
| 20260906183148 | 79 | 140 | 10.4 | 15.6 | 0.00 | 0.00 | 0.00 | 70 | 1018.8 |
| 20260906182648 | 80 | 82 | 10.4 | 13.9 | 0.00 | 0.00 | 0.00 | 68 | 1018.7 |
| 20260906182146 | 81 | 93 | 9.6 | 13.9 | 0.00 | 0.00 | 0.00 | 68 | 1018.6 |
| 20260906181925 | 80 | 87 | 7.8 | 14.8 | 0.00 | 0.00 | 0.00 | 71 | 1018.6 |
| 20260906181144 | 81 | 117 | 10.4 | 14.8 | 0.00 | 0.00 | 0.00 | 70 | 1018.7 |
| 20260906180645 | 80 | 111 | 9.6 | 13.9 | 0.00 | 0.00 | 0.00 | 70 | 1018.6 |
| 20260906180140 | 81 | 151 | 7.0 | 13.9 | 0.00 | 0.00 | 0.00 | 68 | 1018.5 |
| 20260906175640 | 80 | 158 | 9.6 | 13.9 | 0.00 | 0.00 | 0.00 | 70 | 1018.7 |
| 20260906175141 | 80 | 99 | 9.6 | 13.9 | 0.00 | 0.00 | 0.00 | 71 | 1018.6 |
| 20260906174639 | 80 | 130 | 6.1 | 11.3 | 0.00 | 0.00 | 0.00 | 71 | 1018.7 |
| 20260906174140 | 80 | 118 | 9.6 | 13.9 | 0.00 | 0.00 | 0.00 | 71 | 1018.5 |
| 20260906173639 | 80 | 144 | 6.1 | 13.9 | 0.00 | 0.00 | 0.00 | 68 | 1018.6 |
| 20260906173159 | 81 | 141 | 7.0 | 12.2 | 0.00 | 0.00 | 0.00 | 70 | 1018.5 |
| 20260906172137 | 81 | 145 | 7.0 | 15.6 | 0.00 | 0.00 | 0.00 | 70 | 1018.7 |
| 20260906171920 | 80 | 128 | 10.4 | 15.6 | 0.00 | 0.00 | 0.00 | 70 | 1018.7 |
| 20260906171136 | 80 | 118 | 7.8 | 13.0 | 0.00 | 0.00 | 0.00 | 71 | 1018.7 |
| 20260906170635 | 80 | 162 | 7.8 | 13.9 | 0.00 | 0.00 | 0.00 | 72 | 1018.7 |
| 20260906170136 | 79 | 193 | 8.7 | 13.9 | 0.00 | 0.00 | 0.00 | 71 | 1018.9 |
| 20260906165632 | 79 | 133 | 7.0 | 12.2 | 0.00 | 0.00 | 0.00 | 72 | 1019.0 |
| 20260906165133 | 79 | 169 | 8.7 | 12.2 | 0.00 | 0.00 | 0.00 | 73 | 1019.0 |
| 20260906164633 | 78 | 162 | 9.6 | 12.2 | 0.00 | 0.00 | 0.00 | 73 | 1019.0 |
| 20260906164135 | 78 | 190 | 7.0 | 12.2 | 0.00 | 0.00 | 0.00 | 73 | 1019.0 |
| 20260906163910 | 78 | 137 | 7.8 | 12.2 | 0.00 | 0.00 | 0.00 | 73 | 1018.9 |
| 20260906163130 | 78 | 159 | 6.1 | 13.0 | 0.00 | 0.00 | 0.00 | 74 | 1019.1 |
| 20260906162630 | 78 | 134 | 7.0 | 13.9 | 0.00 | 0.00 | 0.00 | 74 | 1018.9 |
| 20260906162131 | 78 | 130 | 10.4 | 13.9 | 0.00 | 0.00 | 0.00 | 74 | 1018.9 |
| 20260906161630 | 78 | 131 | 8.7 | 13.9 | 0.00 | 0.00 | 0.00 | 74 | 1019.1 |
| 20260906161129 | 78 | 144 | 9.6 | 14.8 | 0.00 | 0.00 | 0.00 | 74 | 1019.2 |
| 20260906160912 | 78 | 172 | 9.6 | 14.8 | 0.00 | 0.00 | 0.00 | 75 | 1019.3 |
| 20260906160130 | 76 | 147 | 7.8 | 12.2 | 0.00 | 0.00 | 0.00 | 76 | 1019.4 |
| 20260906155631 | 76 | 189 | 7.0 | 11.3 | 0.00 | 0.00 | 0.00 | 76 | 1019.4 |
| 20260906155130 | 76 | 180 | 5.2 | 11.3 | 0.00 | 0.00 | 0.00 | 78 | 1019.4 |
| 20260906154628 | 75 | 155 | 6.1 | 13.0 | 0.00 | 0.00 | 0.00 | 79 | 1019.4 |
| 20260906154128 | 75 | 186 | 8.7 | 13.0 | 0.00 | 0.00 | 0.00 | 79 | 1019.6 |
| 20260906153909 | 75 | 134 | 3.5 | 11.3 | 0.00 | 0.00 | 0.00 | 81 | 1019.6 |
| 20260906153129 | 74 | 133 | 5.2 | 11.3 | 0.00 | 0.00 | 0.00 | 80 | 1019.5 |
| 20260906152628 | 74 | 131 | 6.1 | 11.3 | 0.00 | 0.00 | 0.00 | 83 | 1019.5 |
| 20260906152127 | 73 | 144 | 8.7 | 11.3 | 0.00 | 0.00 | 0.00 | 83 | 1019.5 |
| 20260906151910 | 73 | 145 | 6.1 | 10.4 | 0.00 | 0.00 | 0.00 | 84 | 1019.5 |
| 20260906151126 | 72 | 152 | 6.1 | 10.4 | 0.00 | 0.00 | 0.00 | 87 | 1019.6 |
| 20260906150626 | 71 | 130 | 5.2 | 10.4 | 0.00 | 0.00 | 0.00 | 89 | 1019.6 |
| 20260906150126 | 71 | 148 | 5.2 | 9.6 | 0.00 | 0.00 | 0.00 | 90 | 1019.6 |
| 20260906145625 | 70 | 135 | 6.1 | 9.6 | 0.00 | 0.00 | 0.00 | 91 | 1019.7 |
| 20260906145407 | 70 | 111 | 4.3 | 11.3 | 0.00 | 0.00 | 0.00 | 93 | 1019.7 |
| 20260906144624 | 69 | 130 | 5.2 | 11.3 | 0.00 | 0.00 | 0.00 | 93 | 1019.6 |
| 20260906144123 | 69 | 128 | 3.5 | 9.6 | 0.00 | 0.00 | 0.00 | 94 | 1019.5 |
| 20260906143624 | 68 | 116 | 5.2 | 9.6 | 0.00 | 0.00 | 0.00 | 94 | 1019.5 |
| 20260906143402 | 68 | 106 | 5.2 | 10.4 | 0.00 | 0.00 | 0.00 | 94 | 1019.6 |
| 20260906142621 | 68 | 133 | 6.1 | 10.4 | 0.00 | 0.00 | 0.00 | 94 | 1019.6 |
| 20260906142121 | 68 | 144 | 7.8 | 10.4 | 0.00 | 0.00 | 0.00 | 94 | 1019.6 |
| 20260906141621 | 68 | 128 | 5.2 | 8.7 | 0.00 | 0.00 | 0.00 | 96 | 1019.5 |
| 20260906141356 | 67 | 151 | 7.0 | 8.7 | 0.00 | 0.00 | 0.00 | 94 | 1019.5 |
| 20260906140619 | 67 | 131 | 4.3 | 8.7 | 0.00 | 0.00 | 0.00 | 96 | 1019.6 |
| 20260906140119 | 67 | 125 | 4.3 | 8.7 | 0.00 | 0.00 | 0.00 | 94 | 1019.7 |
| 20260906135616 | 67 | 110 | 3.5 | 9.6 | 0.00 | 0.00 | 0.00 | 96 | 1019.7 |
| 20260906135117 | 66 | 118 | 4.3 | 10.4 | 0.00 | 0.00 | 0.00 | 96 | 1019.7 |
| 20260906134618 | 66 | 134 | 6.1 | 10.4 | 0.00 | 0.00 | 0.00 | 96 | 1019.6 |
| 20260906134115 | 66 | 128 | 5.2 | 9.6 | 0.00 | 0.00 | 0.00 | 96 | 1019.6 |
| 20260906133615 | 66 | 145 | 5.2 | 9.6 | 0.00 | 0.00 | 0.00 | 96 | 1019.6 |
| 20260906133114 | 65 | 127 | 4.3 | 9.6 | 0.00 | 0.00 | 0.00 | 96 | 1019.5 |
| 20260906132851 | 65 | 154 | 3.5 | 9.6 | 0.00 | 0.00 | 0.00 | 94 | 1019.5 |
| 20260906132114 | 65 | 141 | 5.2 | 9.6 | 0.00 | 0.00 | 0.00 | 96 | 1019.5 |
| 20260906131614 | 65 | 107 | 5.2 | 8.7 | 0.00 | 0.00 | 0.00 | 96 | 1019.5 |
| 20260906131353 | 65 | 140 | 5.2 | 10.4 | 0.00 | 0.00 | 0.00 | 96 | 1019.5 |
| 20260906130614 | 65 | 151 | 7.0 | 10.4 | 0.00 | 0.00 | 0.00 | 96 | 1019.4 |
| 20260906130112 | 65 | 109 | 7.0 | 12.2 | 0.00 | 0.00 | 0.00 | 94 | 1019.3 |
| 20260906125613 | 65 | 135 | 7.8 | 12.2 | 0.00 | 0.00 | 0.00 | 94 | 1019.1 |
| 20260906125110 | 65 | 113 | 6.1 | 10.4 | 0.00 | 0.00 | 0.00 | 94 | 1019.2 |
| 20260906124609 | 64 | 110 | 7.8 | 11.3 | 0.00 | 0.00 | 0.00 | 94 | 1019.3 |
| 20260906124109 | 64 | 116 | 7.0 | 11.3 | 0.00 | 0.00 | 0.00 | 94 | 1019.3 |
| 20260906123609 | 64 | 103 | 7.8 | 11.3 | 0.00 | 0.00 | 0.00 | 94 | 1019.2 |
| 20260906123347 | 64 | 103 | 9.6 | 11.3 | 0.00 | 0.00 | 0.00 | 94 | 1019.2 |
| 20260906122602 | 64 | 109 | 7.8 | 10.4 | 0.00 | 0.00 | 0.00 | 94 | 1019.1 |
| 20260906122101 | 64 | 109 | 6.1 | 8.7 | 0.00 | 0.00 | 0.00 | 94 | 1019.1 |
| 20260906121601 | 64 | 116 | 5.2 | 8.7 | 0.00 | 0.00 | 0.00 | 94 | 1019.0 |
| 20260906121100 | 64 | 97 | 5.2 | 8.7 | 0.00 | 0.00 | 0.00 | 94 | 1018.9 |
| 20260906120558 | 64 | 99 | 5.2 | 8.7 | 0.00 | 0.00 | 0.00 | 94 | 1018.9 |
| 20260906120058 | 64 | 110 | 6.1 | 8.7 | 0.00 | 0.00 | 0.00 | 94 | 1018.9 |
| 20260906115559 | 64 | 142 | 6.1 | 11.3 | 0.00 | 0.00 | 0.00 | 94 | 1018.9 |
| 20260906115107 | 64 | 117 | 7.0 | 11.3 | 0.00 | 0.00 | 0.00 | 94 | 1018.9 |
| 20260906114605 | 64 | 104 | 7.8 | 11.3 | 0.00 | 0.00 | 0.00 | 94 | 1018.8 |
| 20260906114059 | 64 | 103 | 7.0 | 11.3 | 0.00 | 0.00 | 0.00 | 94 | 1018.9 |
| 20260906113600 | 64 | 123 | 6.1 | 8.7 | 0.00 | 0.00 | 0.00 | 94 | 1018.9 |
| 20260906113120 | 64 | 99 | 5.2 | 7.8 | 0.00 | 0.00 | 0.00 | 94 | 1019.1 |
| 20260906112057 | 64 | 118 | 3.5 | 5.2 | 0.00 | 0.00 | 0.00 | 94 | 1019.2 |
| 20260906111558 | 64 | 109 | 3.5 | 5.2 | 0.00 | 0.00 | 0.00 | 94 | 1019.0 |
| 20260906111331 | 64 | 104 | 2.6 | 5.2 | 0.00 | 0.00 | 0.00 | 94 | 1019.0 |
| 20260906110556 | 64 | 130 | 2.6 | 5.2 | 0.00 | 0.00 | 0.00 | 94 | 1018.9 |
| 20260906110329 | 64 | 124 | 3.5 | 6.1 | 0.00 | 0.00 | 0.00 | 94 | 1018.9 |
| 20260906105555 | 64 | 103 | 3.5 | 7.8 | 0.00 | 0.00 | 0.00 | 94 | 1018.9 |
| 20260906105053 | 64 | 130 | 4.3 | 7.8 | 0.00 | 0.00 | 0.00 | 94 | 1018.8 |
| 20260906104553 | 64 | 114 | 4.3 | 6.1 | 0.00 | 0.00 | 0.00 | 94 | 1018.8 |
| 20260906104050 | 64 | 90 | 5.2 | 6.1 | 0.00 | 0.00 | 0.00 | 94 | 1018.8 |
| 20260906103552 | 64 | 117 | 3.5 | 5.2 | 0.00 | 0.00 | 0.00 | 94 | 1018.9 |
| 20260906103050 | 64 | 116 | 3.5 | 5.2 | 0.00 | 0.00 | 0.00 | 94 | 1019.0 |
| 20260906102549 | 64 | 92 | 2.6 | 5.2 | 0.00 | 0.00 | 0.00 | 94 | 1019.0 |
| 20260906102049 | 64 | 104 | 3.5 | 5.2 | 0.00 | 0.00 | 0.00 | 94 | 1019.0 |
| 20260906101548 | 64 | 92 | 4.3 | 4.3 | 0.00 | 0.00 | 0.00 | 94 | 1018.9 |
| 20260906101047 | 64 | 89 | 3.5 | 4.3 | 0.00 | 0.00 | 0.00 | 94 | 1018.9 |
| 20260906100818 | 64 | 102 | 3.5 | 4.3 | 0.00 | 0.00 | 0.00 | 94 | 1018.8 |
| 20260906100047 | 64 | 96 | 3.5 | 5.2 | 0.00 | 0.00 | 0.00 | 94 | 1018.7 |
| 20260906095548 | 64 | 116 | 3.5 | 5.2 | 0.00 | 0.00 | 0.00 | 94 | 1018.3 |
| 20260906095047 | 64 | 121 | 3.5 | 6.1 | 0.00 | 0.00 | 0.00 | 94 | 1018.2 |
| 20260906094547 | 64 | 144 | 3.5 | 7.8 | 0.00 | 0.00 | 0.00 | 94 | 1018.1 |
| 20260906094320 | 63 | 113 | 4.3 | 7.8 | 0.00 | 0.00 | 0.00 | 94 | 1018.0 |
| 20260906093546 | 63 | 120 | 6.1 | 8.7 | 0.00 | 0.00 | 0.00 | 93 | 1018.0 |
| 20260906093318 | 63 | 134 | 5.2 | 8.7 | 0.00 | 0.00 | 0.00 | 93 | 1017.9 |
| 20260906092545 | 63 | 107 | 5.2 | 8.7 | 0.00 | 0.00 | 0.00 | 93 | 1017.9 |
| 20260906092044 | 63 | 97 | 6.1 | 8.7 | 0.00 | 0.00 | 0.00 | 93 | 1018.0 |
| 20260906091815 | 63 | 99 | 6.1 | 10.4 | 0.00 | 0.00 | 0.00 | 93 | 1018.0 |
| 20260906091043 | 63 | 99 | 7.0 | 11.3 | 0.00 | 0.00 | 0.00 | 93 | 1018.0 |
| 20260906090543 | 63 | 99 | 7.0 | 11.3 | 0.00 | 0.00 | 0.00 | 93 | 1018.0 |
| 20260906090042 | 63 | 93 | 7.8 | 12.2 | 0.00 | 0.00 | 0.00 | 93 | 1018.0 |
| 20260906085814 | 63 | 87 | 7.8 | 12.2 | 0.00 | 0.00 | 0.00 | 93 | 1018.0 |
| 20260906085041 | 63 | 89 | 6.1 | 9.6 | 0.00 | 0.00 | 0.00 | 93 | 1018.1 |
| 20260906084538 | 63 | 83 | 6.1 | 9.6 | 0.00 | 0.00 | 0.00 | 93 | 1018.1 |
| 20260906084311 | 63 | 85 | 7.0 | 9.6 | 0.00 | 0.00 | 0.00 | 93 | 1018.1 |
| 20260906083536 | 63 | 99 | 6.1 | 8.7 | 0.00 | 0.00 | 0.00 | 93 | 1018.2 |
| 20260906083036 | 63 | 118 | 5.2 | 7.8 | 0.00 | 0.00 | 0.00 | 93 | 1018.2 |
| 20260906082536 | 63 | 76 | 4.3 | 7.8 | 0.00 | 0.00 | 0.00 | 93 | 1018.3 |
| 20260906082036 | 63 | 111 | 4.3 | 7.8 | 0.00 | 0.00 | 0.00 | 93 | 1018.2 |
| 20260906081536 | 63 | 89 | 4.3 | 7.8 | 0.00 | 0.00 | 0.00 | 93 | 1018.2 |
| 20260906081034 | 63 | 72 | 4.3 | 6.1 | 0.00 | 0.00 | 0.00 | 93 | 1018.3 |
| 20260906080535 | 63 | 79 | 3.5 | 5.2 | 0.00 | 0.00 | 0.00 | 93 | 1018.3 |
| 20260906080304 | 63 | 86 | 3.5 | 6.1 | 0.00 | 0.00 | 0.00 | 93 | 1018.2 |
| 20260906075532 | 63 | 59 | 2.6 | 6.1 | 0.00 | 0.00 | 0.00 | 93 | 1018.2 |
| 20260906075031 | 63 | 82 | 3.5 | 6.1 | 0.00 | 0.00 | 0.00 | 93 | 1018.1 |
| 20260906074530 | 63 | 69 | 3.5 | 5.2 | 0.00 | 0.00 | 0.00 | 92 | 1018.3 |
| 20260906074302 | 63 | 41 | 2.6 | 4.3 | 0.00 | 0.00 | 0.00 | 92 | 1018.4 |
| 20260906073530 | 63 | 68 | 3.5 | 4.3 | 0.00 | 0.00 | 0.00 | 92 | 1018.4 |
| 20260906073030 | 63 | 56 | 2.6 | 5.2 | 0.00 | 0.00 | 0.00 | 92 | 1018.3 |
| 20260906072528 | 63 | 85 | 2.6 | 5.2 | 0.00 | 0.00 | 0.00 | 92 | 1018.5 |
| 20260906072030 | 63 | 71 | 3.5 | 5.2 | 0.00 | 0.00 | 0.00 | 92 | 1018.5 |
| 20260906071800 | 63 | 120 | 3.5 | 7.8 | 0.00 | 0.00 | 0.00 | 92 | 1018.5 |
| 20260906071030 | 64 | 83 | 5.2 | 7.8 | 0.00 | 0.00 | 0.00 | 92 | 1018.4 |
| 20260906070805 | 64 | 94 | 5.2 | 7.8 | 0.00 | 0.00 | 0.00 | 92 | 1018.5 |
| 20260906070302 | 64 | 93 | 4.3 | 6.1 | 0.00 | 0.00 | 0.00 | 92 | 1018.6 |
| 20260906065528 | 64 | 79 | 3.5 | 6.1 | 0.00 | 0.00 | 0.00 | 92 | 1018.7 |
| 20260906065030 | 64 | 85 | 3.5 | 5.2 | 0.00 | 0.00 | 0.00 | 92 | 1018.8 |
| 20260906064529 | 64 | 59 | 3.5 | 5.2 | 0.00 | 0.00 | 0.00 | 92 | 1018.8 |
| 20260906064029 | 64 | 68 | 2.6 | 5.2 | 0.00 | 0.00 | 0.00 | 92 | 1018.8 |
| 20260906063527 | 64 | 48 | 1.7 | 5.2 | 0.00 | 0.00 | 0.00 | 92 | 1018.9 |
| 20260906063027 | 64 | 76 | 2.6 | 5.2 | 0.00 | 0.00 | 0.00 | 91 | 1018.9 |
| 20260906062525 | 64 | 73 | 1.7 | 6.1 | 0.00 | 0.00 | 0.00 | 91 | 1018.8 |
| 20260906062025 | 64 | 94 | 3.5 | 6.1 | 0.00 | 0.00 | 0.00 | 91 | 1018.7 |
| 20260906061758 | 64 | 59 | 4.3 | 6.1 | 0.00 | 0.00 | 0.00 | 91 | 1018.6 |
| 20260906061325 | 64 | 76 | 4.3 | 6.1 | 0.00 | 0.00 | 0.00 | 91 | 1018.6 |
| 20260906060024 | 65 | 99 | 3.5 | 6.1 | 0.00 | 0.00 | 0.00 | 91 | 1018.6 |
| 20260906055524 | 65 | 86 | 3.5 | 5.2 | 0.00 | 0.00 | 0.00 | 91 | 1018.6 |
| 20260906055024 | 65 | 94 | 4.3 | 6.1 | 0.00 | 0.00 | 0.00 | 91 | 1018.6 |
| 20260906054548 | 65 | 100 | 5.2 | 6.1 | 0.00 | 0.00 | 0.00 | 91 | 1018.7 |
| 20260906053521 | 65 | 103 | 4.3 | 8.7 | 0.00 | 0.00 | 0.00 | 90 | 1018.6 |
| 20260906053021 | 65 | 103 | 6.1 | 8.7 | 0.00 | 0.00 | 0.00 | 90 | 1018.5 |
| 20260906052520 | 65 | 120 | 6.1 | 8.7 | 0.00 | 0.00 | 0.00 | 90 | 1018.4 |
| 20260906052023 | 65 | 104 | 5.2 | 8.7 | 0.00 | 0.00 | 0.00 | 90 | 1018.5 |
| 20260906051517 | 65 | 109 | 6.1 | 8.7 | 0.00 | 0.00 | 0.00 | 90 | 1018.3 |
| 20260906051016 | 65 | 96 | 6.1 | 8.7 | 0.00 | 0.00 | 0.00 | 90 | 1018.3 |
| 20260906050516 | 65 | 110 | 7.0 | 9.6 | 0.00 | 0.00 | 0.00 | 90 | 1018.3 |
| 20260906050258 | 65 | 116 | 7.0 | 9.6 | 0.00 | 0.00 | 0.00 | 90 | 1018.3 |
| 20260906045514 | 66 | 93 | 6.1 | 8.7 | 0.00 | 0.00 | 0.00 | 90 | 1018.4 |
| 20260906045015 | 66 | 104 | 5.2 | 8.7 | 0.00 | 0.00 | 0.00 | 89 | 1018.4 |
| 20260906044515 | 66 | 117 | 5.2 | 8.7 | 0.00 | 0.00 | 0.00 | 89 | 1018.6 |
| 20260906044042 | 66 | 106 | 6.1 | 8.7 | 0.00 | 0.00 | 0.00 | 89 | 1018.5 |
| 20260906043020 | 66 | 107 | 5.2 | 7.8 | 0.00 | 0.00 | 0.00 | 89 | 1018.6 |
| 20260906042519 | 66 | 96 | 5.2 | 9.6 | 0.00 | 0.00 | 0.00 | 88 | 1018.6 |
| 20260906042024 | 67 | 90 | 6.1 | 9.6 | 0.00 | 0.00 | 0.00 | 89 | 1018.6 |
| 20260906041518 | 67 | 96 | 6.1 | 9.6 | 0.00 | 0.00 | 0.00 | 88 | 1018.4 |
| 20260906041018 | 67 | 107 | 5.2 | 9.6 | 0.00 | 0.00 | 0.00 | 88 | 1018.4 |
| 20260906040757 | 67 | 89 | 7.0 | 8.7 | 0.00 | 0.00 | 0.00 | 89 | 1018.5 |
| 20260906040005 | 67 | 99 | 6.1 | 7.8 | 0.00 | 0.00 | 0.00 | 89 | 1018.4 |
| 20260906035517 | 67 | 92 | 7.0 | 7.8 | 0.00 | 0.00 | 0.00 | 89 | 1018.4 |
| 20260906035253 | 67 | 107 | 5.2 | 7.8 | 0.00 | 0.00 | 0.00 | 89 | 1018.6 |
| 20260906034518 | 67 | 83 | 3.5 | 7.8 | 0.00 | 0.00 | 0.00 | 89 | 1018.6 |
| 20260906034015 | 67 | 82 | 5.2 | 7.8 | 0.00 | 0.00 | 0.00 | 88 | 1018.6 |
| 20260906033500 | 67 | 104 | 4.3 | 8.7 | 0.00 | 0.00 | 0.00 | 88 | 1018.6 |
| 20260906033000 | 67 | 82 | 5.2 | 8.7 | 0.00 | 0.00 | 0.00 | 88 | 1018.5 |
| 20260906032459 | 67 | 99 | 7.0 | 8.7 | 0.00 | 0.00 | 0.00 | 88 | 1018.5 |
| 20260906032000 | 67 | 90 | 6.1 | 8.7 | 0.00 | 0.00 | 0.00 | 89 | 1018.5 |
| 20260906031456 | 67 | 100 | 6.1 | 8.7 | 0.00 | 0.00 | 0.00 | 89 | 1018.5 |
| 20260906030954 | 67 | 106 | 5.2 | 7.8 | 0.00 | 0.00 | 0.00 | 89 | 1018.6 |
| 20260906030735 | 66 | 94 | 4.3 | 7.8 | 0.00 | 0.00 | 0.00 | 90 | 1018.7 |
| 20260906025950 | 66 | 96 | 5.2 | 7.8 | 0.00 | 0.00 | 0.00 | 90 | 1018.7 |
| 20260906025511 | 66 | 100 | 5.2 | 6.1 | 0.00 | 0.00 | 0.00 | 90 | 1018.6 |
| 20260906024447 | 65 | 86 | 3.5 | 5.2 | 0.00 | 0.00 | 0.00 | 90 | 1018.7 |
| 20260906023943 | 65 | 89 | 3.5 | 5.2 | 0.00 | 0.00 | 0.00 | 90 | 1018.8 |
| 20260906023441 | 66 | 80 | 4.3 | 5.2 | 0.00 | 0.00 | 0.00 | 90 | 1018.9 |
| 20260906022941 | 65 | 90 | 3.5 | 5.2 | 0.00 | 0.00 | 0.00 | 90 | 1018.7 |
| 20260906022438 | 65 | 69 | 3.5 | 5.2 | 0.00 | 0.00 | 0.00 | 90 | 1018.7 |
| 20260906021938 | 65 | 71 | 3.5 | 5.2 | 0.00 | 0.00 | 0.00 | 89 | 1018.7 |
| 20260906021435 | 65 | 82 | 3.5 | 5.2 | 0.00 | 0.00 | 0.00 | 89 | 1018.7 |
| 20260906020936 | 66 | 55 | 2.6 | 3.5 | 0.00 | 0.00 | 0.00 | 89 | 1018.8 |
| 20260906020434 | 66 | 44 | 1.7 | 3.5 | 0.00 | 0.00 | 0.00 | 89 | 1018.7 |
| 20260906020218 | 66 | 35 | 2.6 | 3.5 | 0.00 | 0.00 | 0.00 | 89 | 1018.6 |
| 20260906015716 | 66 | 20 | 2.6 | 3.5 | 0.00 | 0.00 | 0.00 | 89 | 1018.6 |
| 20260906015215 | 66 | 16 | 2.6 | 3.5 | 0.00 | 0.00 | 0.00 | 89 | 1018.4 |
| 20260906014433 | 66 | 23 | 2.6 | 3.5 | 0.00 | 0.00 | 0.00 | 88 | 1018.3 |
| 20260906013932 | 66 | 8 | 1.7 | 2.6 | 0.00 | 0.00 | 0.00 | 87 | 1018.2 |
| 20260906013432 | 67 | 44 | 1.7 | 3.5 | 0.00 | 0.00 | 0.00 | 88 | 1018.1 |
| 20260906012931 | 67 | 39 | 1.7 | 3.5 | 0.00 | 0.00 | 0.00 | 88 | 1017.9 |
| 20260906012431 | 67 | 38 | 3.5 | 3.5 | 0.00 | 0.00 | 0.00 | 85 | 1017.6 |
| 20260906011931 | 68 | 42 | 1.7 | 2.6 | 0.00 | 0.00 | 0.00 | 85 | 1017.5 |
| 20260906011432 | 68 | 80 | 1.7 | 2.6 | 0.00 | 0.00 | 0.00 | 85 | 1017.3 |
| 20260906010930 | 68 | 80 | 1.7 | 2.6 | 0.00 | 0.00 | 0.00 | 84 | 1017.2 |
| 20260906010429 | 69 | 80 | 0.9 | 2.6 | 0.00 | 0.00 | 0.00 | 84 | 1017.2 |
| 20260906005930 | 69 | 80 | 1.7 | 2.6 | 0.00 | 0.00 | 0.00 | 84 | 1017.1 |
| 20260906005718 | 69 | 68 | 2.6 | 2.6 | 0.00 | 0.00 | 0.00 | 84 | 1017.0 |
| 20260906005213 | 69 | 71 | 1.7 | 3.5 | 0.00 | 0.00 | 0.00 | 83 | 1016.9 |
| 20260906004430 | 70 | 92 | 3.5 | 3.5 | 0.00 | 0.00 | 0.00 | 82 | 1016.7 |
| 20260906004212 | 70 | 104 | 3.5 | 4.3 | 0.00 | 0.00 | 0.00 | 81 | 1016.7 |
| 20260906003713 | 71 | 99 | 1.7 | 4.3 | 0.00 | 0.00 | 0.00 | 80 | 1016.7 |
| 20260906002929 | 71 | 109 | 3.5 | 5.2 | 0.00 | 0.00 | 0.00 | 79 | 1016.6 |
| 20260906002428 | 72 | 93 | 3.5 | 6.1 | 0.00 | 0.00 | 0.00 | 78 | 1016.6 |
| 20260906001929 | 72 | 104 | 5.2 | 9.6 | 0.00 | 0.00 | 0.00 | 76 | 1016.6 |
| 20260906001427 | 73 | 118 | 6.1 | 9.6 | 0.00 | 0.00 | 0.00 | 76 | 1016.4 |
| 20260906000927 | 73 | 102 | 6.1 | 10.4 | 0.00 | 0.00 | 0.00 | 75 | 1016.2 |
| 20260906000426 | 73 | 107 | 7.0 | 10.4 | 0.00 | 0.00 | 0.00 | 75 | 1016.2 |
| 20260905235925 | 73 | 138 | 7.0 | 11.3 | 0.00 | 0.00 | 0.00 | 74 | 1016.1 |
| 20260905235425 | 74 | 113 | 8.7 | 12.2 | 0.00 | 0.00 | 0.00 | 74 | 1016.0 |
| 20260905234920 | 74 | 109 | 9.6 | 12.2 | 0.00 | 0.00 | 0.00 | 74 | 1016.0 |
| 20260905234421 | 74 | 116 | 8.7 | 14.8 | 0.00 | 0.00 | 0.00 | 73 | 1016.0 |
| 20260905233921 | 74 | 99 | 8.7 | 15.6 | 0.00 | 0.00 | 0.00 | 73 | 1015.9 |
| 20260905233704 | 75 | 93 | 11.3 | 15.6 | 0.00 | 0.00 | 0.00 | 73 | 1016.0 |
| 20260905232918 | 75 | 99 | 9.6 | 13.9 | 0.00 | 0.00 | 0.00 | 73 | 1015.9 |
| 20260905232418 | 75 | 117 | 9.6 | 13.9 | 0.00 | 0.00 | 0.00 | 72 | 1015.8 |
| 20260905231919 | 76 | 87 | 11.3 | 13.9 | 0.00 | 0.00 | 0.00 | 72 | 1015.8 |
| 20260905231418 | 76 | 96 | 7.0 | 13.0 | 0.00 | 0.00 | 0.00 | 72 | 1015.8 |
| 20260905230919 | 76 | 107 | 8.7 | 12.2 | 0.00 | 0.00 | 0.00 | 71 | 1015.8 |
| 20260905230702 | 76 | 87 | 8.7 | 13.0 | 0.00 | 0.00 | 0.00 | 70 | 1016.0 |
| 20260905225917 | 76 | 123 | 8.7 | 13.0 | 0.00 | 0.00 | 0.00 | 70 | 1015.9 |
| 20260905225417 | 77 | 111 | 8.7 | 13.9 | 0.00 | 0.00 | 0.00 | 70 | 1016.0 |
| 20260905224916 | 77 | 93 | 9.6 | 13.9 | 0.00 | 0.00 | 0.00 | 70 | 1016.1 |
| 20260905224416 | 77 | 97 | 10.4 | 13.0 | 0.00 | 0.00 | 0.00 | 68 | 1016.3 |
| 20260905224207 | 77 | 93 | 9.6 | 13.9 | 0.00 | 0.00 | 0.00 | 68 | 1016.5 |
| 20260905223418 | 78 | 109 | 9.6 | 13.9 | 0.00 | 0.00 | 0.00 | 68 | 1016.5 |
| 20260905222918 | 78 | 103 | 10.4 | 13.0 | 0.00 | 0.00 | 0.00 | 67 | 1016.6 |
| 20260905222417 | 78 | 113 | 7.0 | 13.0 | 0.00 | 0.00 | 0.00 | 68 | 1016.5 |
| 20260905221910 | 78 | 104 | 9.6 | 13.0 | 0.00 | 0.00 | 0.00 | 67 | 1016.4 |
| 20260905221650 | 79 | 59 | 7.8 | 11.3 | 0.00 | 0.00 | 0.00 | 68 | 1016.4 |
| 20260905220902 | 79 | 94 | 7.0 | 13.9 | 0.00 | 0.00 | 0.00 | 67 | 1016.5 |
| 20260905220404 | 79 | 65 | 7.8 | 13.9 | 0.00 | 0.00 | 0.00 | 66 | 1016.5 |
| 20260905215903 | 80 | 111 | 7.0 | 13.9 | 0.00 | 0.00 | 0.00 | 67 | 1016.5 |
| 20260905215402 | 80 | 73 | 8.7 | 13.9 | 0.00 | 0.00 | 0.00 | 66 | 1016.5 |
| 20260905214903 | 81 | 52 | 8.7 | 13.9 | 0.00 | 0.00 | 0.00 | 65 | 1016.5 |
| 20260905214402 | 80 | 61 | 7.0 | 13.0 | 0.00 | 0.00 | 0.00 | 66 | 1016.6 |
| 20260905213902 | 80 | 85 | 9.6 | 15.6 | 0.00 | 0.00 | 0.00 | 65 | 1016.5 |
| 20260905213402 | 81 | 104 | 9.6 | 15.6 | 0.00 | 0.00 | 0.00 | 64 | 1016.7 |
| 20260905212903 | 81 | 92 | 7.8 | 13.9 | 0.00 | 0.00 | 0.00 | 66 | 1016.6 |
| 20260905212402 | 81 | 137 | 6.1 | 13.9 | 0.00 | 0.00 | 0.00 | 65 | 1016.7 |
| 20260905211902 | 82 | 72 | 8.7 | 13.9 | 0.00 | 0.00 | 0.00 | 66 | 1016.7 |
| 20260905211401 | 81 | 62 | 9.6 | 13.0 | 0.00 | 0.00 | 0.00 | 66 | 1016.8 |
| 20260905210902 | 81 | 121 | 9.6 | 13.0 | 0.00 | 0.00 | 0.00 | 65 | 1016.9 |
| 20260905210402 | 81 | 104 | 7.0 | 12.2 | 0.00 | 0.00 | 0.00 | 66 | 1017.1 |
| 20260905205902 | 81 | 116 | 9.6 | 13.0 | 0.00 | 0.00 | 0.00 | 66 | 1017.2 |
| 20260905205653 | 81 | 100 | 9.6 | 13.0 | 0.00 | 0.00 | 0.00 | 65 | 1017.1 |
| 20260905204901 | 80 | 111 | 10.4 | 13.0 | 0.00 | 0.00 | 0.00 | 67 | 1017.1 |
| 20260905204401 | 81 | 120 | 7.0 | 11.3 | 0.00 | 0.00 | 0.00 | 65 | 1017.2 |
| 20260905204155 | 81 | 96 | 5.2 | 11.3 | 0.00 | 0.00 | 0.00 | 66 | 1017.1 |
| 20260905203359 | 80 | 71 | 6.1 | 11.3 | 0.00 | 0.00 | 0.00 | 65 | 1017.3 |
| 20260905202900 | 80 | 110 | 4.3 | 10.4 | 0.00 | 0.00 | 0.00 | 67 | 1017.3 |
| 20260905202358 | 80 | 117 | 6.1 | 11.3 | 0.00 | 0.00 | 0.00 | 66 | 1017.4 |
| 20260905201858 | 80 | 102 | 7.0 | 11.3 | 0.00 | 0.00 | 0.00 | 67 | 1017.4 |
| 20260905201357 | 80 | 109 | 7.8 | 10.4 | 0.00 | 0.00 | 0.00 | 67 | 1017.5 |
| 20260905200857 | 79 | 73 | 6.1 | 10.4 | 0.00 | 0.00 | 0.00 | 67 | 1017.6 |
| 20260905200356 | 80 | 92 | 6.1 | 10.4 | 0.00 | 0.00 | 0.00 | 66 | 1017.9 |
| 20260905200148 | 79 | 116 | 5.2 | 12.2 | 0.00 | 0.00 | 0.00 | 66 | 1018.0 |
| 20260905195355 | 79 | 128 | 7.8 | 12.2 | 0.00 | 0.00 | 0.00 | 68 | 1018.1 |
| 20260905194857 | 79 | 125 | 5.2 | 10.4 | 0.00 | 0.00 | 0.00 | 70 | 1018.1 |
| 20260905194356 | 79 | 145 | 7.8 | 10.4 | 0.00 | 0.00 | 0.00 | 70 | 1018.2 |
| 20260905193849 | 79 | 100 | 3.5 | 7.8 | 0.00 | 0.00 | 0.00 | 70 | 1018.3 |
| 20260905193637 | 79 | 148 | 4.3 | 7.8 | 0.00 | 0.00 | 0.00 | 68 | 1018.3 |
| 20260905193134 | 78 | 128 | 2.6 | 9.6 | 0.00 | 0.00 | 0.00 | 70 | 1018.4 |
| 20260905192341 | 78 | 138 | 5.2 | 9.6 | 0.00 | 0.00 | 0.00 | 70 | 1018.5 |
| 20260905192134 | 78 | 148 | 6.1 | 9.6 | 0.00 | 0.00 | 0.00 | 70 | 1018.6 |